Weather History for Somerville, NJ

Change the Weather History Date:

Saturday, February 9, 2013

  Actual Average Record
Temperature  
Mean Temperature 28 °F -  
Max Temperature 34 °F 36 °F 59 °F (1949)
Min Temperature 19 °F 16 °F -7 °F (1967)
Degree Days  
Heating Degree Days 38    
Moisture  
Dew Point 19 °F    
Average Humidity 69    
Maximum Humidity 100    
Minimum Humidity 35    
Precipitation  
Precipitation 0.27 in - - ()
Sea Level Pressure  
Sea Level Pressure 29.98 in    
Wind  
Wind Speed 8 mph (NW)    
Max Wind Speed 21 mph    
Max Gust Speed 33 mph    
Visibility 6 miles    
Events Fog , Rain , Snow    
Averages and records for this station are not official NWS values.
T = Trace of Precipitation, MM = Missing Value Source: NWS Daily Summary

Daily Weather History Graph

Daily Weather History Graph

Search for Another Location

Airport:

Trip Planner

Search our weather history database for the weather conditions in past years. The results will help you decide how hot, cold, wet, or windy it might be!

Date:

Astronomy

Feb. 09, 2013 Rise Set
Actual Time 6:59 AM EST 5:26 PM EST
Civil Twilight 6:31 AM EST 5:55 PM EST
Nautical Twilight 5:59 AM EST 6:27 PM EST
Astronomical Twilight 5:27 AM EST 6:59 PM EST
Moon 6:09 AM EST (2/9) 5:06 PM EST (2/9)
Length of Visible Light 11h 23m
Length of Day
10h 27m
Waning Crescent, 0% of the Moon is Illuminated
Feb 9
Waning Crescent
Feb 10
New
Feb 17
First Quarter
Feb 25
Full
Mar 4
Last Quarter

Hourly Weather History & Observations

Time (EST) Temp. Windchill Dew Point Humidity Pressure Visibility Wind Dir Wind Speed Gust Speed Precip Events Conditions
12:01 AM 30.2 °F 26.7 °F 28.4 °F 93% 29.77 in 1.0 mi North 3.5 mph - 0.00 in Snow Light Snow
12:53 AM 30.9 °F - 28.9 °F 92% 29.78 in 0.8 mi Calm Calm - 0.00 in Snow Light Snow
1:04 AM 30.2 °F - 30.2 °F 100% 29.76 in 0.5 mi Calm Calm - 0.00 in Fog , Snow Snow
1:21 AM 30.2 °F - 30.2 °F 100% 29.77 in 1.0 mi Calm Calm - 0.00 in Snow Light Snow
1:32 AM 30.2 °F 26.7 °F 30.2 °F 100% 29.78 in 1.0 mi NNW 3.5 mph - 0.00 in Snow Light Snow
1:53 AM 30.9 °F - 30.0 °F 96% 29.79 in 1.2 mi Calm Calm - 0.00 in Snow Light Snow
2:02 AM 30.2 °F - 30.2 °F 100% 29.78 in 1.8 mi Calm Calm - 0.00 in Snow Light Snow
2:10 AM 30.2 °F - 30.2 °F 100% 29.78 in 2.5 mi Calm Calm - 0.00 in Snow Light Snow
2:18 AM 30.2 °F 26.7 °F 30.2 °F 100% 29.78 in 3.0 mi NNW 3.5 mph - 0.00 in Snow Light Snow
2:34 AM 30.2 °F 25.4 °F 30.2 °F 100% 29.79 in 6.0 mi NW 4.6 mph - 0.00 in Snow Light Snow
2:53 AM 32.0 °F 27.5 °F 28.9 °F 88% 29.81 in 9.0 mi Variable 4.6 mph - 0.00 in   Overcast
3:00 AM 32.0 °F 24.8 °F 28.4 °F 87% 29.80 in 10.0 mi North 8.1 mph 17.3 mph N/A   Overcast
3:53 AM 30.0 °F 19.1 °F 26.1 °F 85% 29.83 in 2.5 mi NW 15.0 mph 24.2 mph 0.00 in Snow Light Snow
4:03 AM 30.2 °F 20.2 °F 26.6 °F 86% 29.83 in 3.0 mi NW 12.7 mph 20.7 mph 0.00 in Snow Light Snow
4:13 AM 28.4 °F 18.0 °F 26.6 °F 93% 29.84 in 3.0 mi NW 12.7 mph - 0.00 in Snow Light Snow
4:53 AM 28.0 °F 19.3 °F 23.0 °F 81% 29.87 in 6.0 mi WNW 9.2 mph 17.3 mph 0.00 in Snow Light Snow
5:53 AM 28.0 °F 17.0 °F 21.0 °F 75% 29.90 in 5.0 mi NW 13.8 mph 21.9 mph 0.00 in   Overcast
6:53 AM 26.1 °F 14.5 °F 19.0 °F 75% 29.93 in 8.0 mi NW 13.8 mph 21.9 mph 0.00 in   Partly Cloudy
7:37 AM 26.6 °F 13.8 °F 17.6 °F 69% 29.95 in 1.8 mi NW 17.3 mph 27.6 mph 0.00 in Snow Light Snow
7:53 AM 26.1 °F 15.6 °F 17.1 °F 69% 29.97 in 2.0 mi NW 11.5 mph 24.2 mph 0.00 in   Mostly Cloudy
8:21 AM 26.6 °F 19.1 °F 15.8 °F 64% 29.97 in 10.0 mi Variable 6.9 mph 20.7 mph 0.00 in   Scattered Clouds
8:53 AM 27.0 °F 14.7 °F 16.0 °F 63% 29.99 in 5.0 mi NNW 16.1 mph 24.2 mph 0.00 in   Haze
9:53 AM 30.0 °F 19.5 °F 17.1 °F 59% 30.02 in 10.0 mi NW 13.8 mph 24.2 mph 0.00 in   Scattered Clouds
10:14 AM 28.4 °F 19.1 °F 15.8 °F 59% 30.03 in 2.5 mi NW 10.4 mph 25.3 mph 0.00 in   Haze
10:23 AM 28.4 °F 17.0 °F 15.8 °F 59% 30.04 in 6.0 mi NW 15.0 mph 24.2 mph N/A   Haze
10:53 AM 28.9 °F 16.5 °F 15.1 °F 56% 30.05 in 10.0 mi NW 18.4 mph 26.5 mph 0.00 in   Clear
11:21 AM 30.2 °F 19.3 °F 15.8 °F 55% 30.04 in 2.0 mi NNW 15.0 mph 28.8 mph 0.00 in   Clear
11:31 AM 30.2 °F 17.4 °F 15.8 °F 55% 30.04 in 9.0 mi NW 20.7 mph 25.3 mph 0.00 in   Clear
11:53 AM 30.9 °F 19.8 °F 15.1 °F 52% 30.06 in 4.0 mi NNW 16.1 mph 29.9 mph 0.00 in   Clear
12:53 PM 32.0 °F 20.5 °F 14.0 °F 48% 30.08 in 9.0 mi NNW 18.4 mph 26.5 mph 0.01 in   Clear
1:53 PM 33.1 °F 22.2 °F 10.9 °F 40% 30.09 in 8.0 mi NNW 17.3 mph 33.4 mph 0.11 in Rain Light Rain
2:53 PM 34.0 °F 23.4 °F 9.0 °F 35% 30.11 in 9.0 mi NNW 17.3 mph 27.6 mph 0.10 in   Unknown
3:53 PM 33.1 °F 21.5 °F 9.0 °F 37% 30.13 in 10.0 mi NW 19.6 mph 25.3 mph 0.04 in   Clear
4:53 PM 30.9 °F 18.7 °F 7.0 °F 37% 30.16 in 9.0 mi NNW 19.6 mph 32.2 mph 0.01 in   Clear
5:53 PM 28.9 °F 18.2 °F 8.1 °F 41% 30.20 in 10.0 mi NW 13.8 mph 21.9 mph N/A   Clear
6:53 PM 27.0 °F 16.7 °F 8.1 °F 45% 30.23 in 10.0 mi NW 11.5 mph - N/A   Clear
7:53 PM 26.1 °F 16.2 °F 6.1 °F 43% 30.26 in 10.0 mi NNW 10.4 mph 17.3 mph N/A   Clear
8:53 PM 24.1 °F 13.7 °F 6.1 °F 46% 30.31 in 10.0 mi NW 10.4 mph - N/A   Clear
9:53 PM 23.0 °F 12.4 °F 5.0 °F 46% 30.33 in 10.0 mi NNW 10.4 mph - N/A   Clear
10:53 PM 21.9 °F 13.4 °F 5.0 °F 48% 30.34 in 10.0 mi North 6.9 mph - N/A   Clear
11:53 PM 19.9 °F 10.1 °F 5.0 °F 52% 30.37 in 10.0 mi NNW 8.1 mph - N/A   Clear